Weather History for HTZA - July, 2013

Change the Weather History Date:

Tuesday, July 16, 2013

  Actual Average Record
Temperature  
Mean Temperature 79 °F -  
Max Temperature 84 °F 79 °F 86 °F (2012)
Min Temperature 74 °F 71 °F 68 °F (2006)
Cooling Degree Days 14    
Growing Degree Days 29 (Base 50)    
Moisture  
Dew Point 70 °F    
Average Humidity 76    
Maximum Humidity 89    
Minimum Humidity 58    
Precipitation  
Precipitation 0.00 in 0.06 in - ()
Sea Level Pressure  
Sea Level Pressure 30.02 in    
Wind  
Wind Speed 14 mph ()    
Max Wind Speed 45 mph    
Max Gust Speed -    
Visibility 9.2 miles    
Events      
Averages and records for this station are not official NWS values.
T = Trace of Precipitation, MM = Missing Value Source: Averaged Metar Reports

Daily Weather History Graph

Daily Weather History Graph

Search for Another Location

Airport or City:

Trip Planner

Search our weather history database for the weather conditions in past years. The results will help you decide how hot, cold, wet, or windy it might be!

Date:

Astronomy

Jul. 16, 2013 Rise Set
Actual Time 6:35 AM EAT 6:23 PM EAT
Civil Twilight 6:13 AM EAT 6:45 PM EAT
Nautical Twilight 5:47 AM EAT 7:11 PM EAT
Astronomical Twilight 5:21 AM EAT 7:36 PM EAT
Moon 12:20 PM EAT (7/16) 12:03 AM EAT (7/16)
Length of Visible Light 12h 32m
Length of Day
11h 47m
First Quarter, 53% of the Moon is Illuminated
Jul 16
First Quarter
Jul 22
Full
Jul 29
Last Quarter
Aug 7
New
Aug 14
First Quarter

Hourly Weather History & Observations

Time (EAT) Temp. Heat Index Dew Point Humidity Pressure Visibility Wind Dir Wind Speed Gust Speed Precip Events Conditions
12:00 AM 76 °F - 71 °F 79% 30.03 in 19 mi SE 22.4 mph - -   Partly Cloudy
12:00 AM 75.2 °F - 71.6 °F 89% 30.01 in 6.2 mi SE 11.5 mph - N/A   Scattered Clouds
1:00 AM 75.2 °F - 69.8 °F 83% 30.01 in 6.2 mi SE 6.9 mph - N/A   Scattered Clouds
2:00 AM 75.2 °F - 69.8 °F 83% 29.98 in 6.2 mi SE 5.8 mph - N/A   Scattered Clouds
3:00 AM 75 °F - 70 °F 79% 29.99 in 19 mi SSE 11.5 mph - -   Partly Cloudy
3:00 AM 75.2 °F - 69.8 °F 83% 29.98 in 6.2 mi SSE 11.5 mph - N/A   Scattered Clouds
4:00 AM 75.2 °F - 69.8 °F 83% 30.01 in 6.2 mi SE 9.2 mph - N/A   Scattered Clouds
5:00 AM 75.2 °F - 69.8 °F 83% 30.01 in 6.2 mi SE 11.5 mph - N/A   Scattered Clouds
6:00 AM - - 71 °F % 30.03 in 0 mi NNE 42.6 mph - -   Mostly Cloudy
6:00 AM 75.2 °F - 71.6 °F 89% 30.01 in 6.2 mi SW 9.2 mph - N/A   Mostly Cloudy
7:00 AM 73.4 °F - 69.8 °F 88% 30.04 in 6.2 mi SSW 9.2 mph - N/A   Scattered Clouds
8:00 AM 75.2 °F - 68.0 °F 78% 30.04 in 6.2 mi SSW 13.8 mph - N/A   Scattered Clouds
9:00 AM 77 °F - 69 °F 71% 30.07 in 19 mi SSW 10.4 mph - -   Partly Cloudy
9:00 AM 77.0 °F - 69.8 °F 78% 30.06 in 6.2 mi SSW 10.4 mph - N/A   Scattered Clouds
10:00 AM 77.0 °F - 69.8 °F 78% 30.06 in 6.2 mi SSW 9.2 mph - N/A   Scattered Clouds
11:00 AM 78.8 °F - 69.8 °F 74% 30.04 in 6.2 mi SW 12.7 mph - N/A   Scattered Clouds
12:00 PM 80 °F - 70 °F 64% 30.04 in 19 mi South 24.6 mph - -   Partly Cloudy
12:00 PM 80.6 °F 83.9 °F 69.8 °F 70% 30.04 in 6.2 mi South 12.7 mph - N/A   Mostly Cloudy
1:00 PM 82.4 °F 84.6 °F 66.2 °F 58% 30.01 in 6.2 mi South 11.5 mph - N/A   Mostly Cloudy
2:00 PM 82.4 °F 85.4 °F 68.0 °F 62% 29.98 in 6.2 mi SSE 15.0 mph - N/A   Mostly Cloudy
3:00 PM 80 °F - 69 °F 61% 29.98 in 19 mi SSE 44.7 mph - -   Partly Cloudy
3:00 PM 80.6 °F 83.2 °F 68.0 °F 65% 29.98 in 6.2 mi SSE 23.0 mph - N/A   Scattered Clouds
6:00 PM 78 °F - 70 °F 69% 29.99 in 19 mi SE 35.8 mph - -   Scattered Clouds
6:00 PM 78.8 °F - 69.8 °F 74% 29.98 in 6.2 mi SE 18.4 mph - N/A   Mostly Cloudy
8:00 PM 77.0 °F - 69.8 °F 78% 30.01 in 6.2 mi SE 13.8 mph - N/A   Mostly Cloudy
9:00 PM 76 °F - 69 °F 75% 30.03 in 19 mi SE 22.4 mph - -   Scattered Clouds
10:00 PM 75.2 °F - 69.8 °F 83% 30.04 in 6.2 mi SE 11.5 mph - N/A   Partly Cloudy
11:00 PM 75.2 °F - 69.8 °F 83% 30.04 in 6.2 mi SE 15.0 mph - N/A   Partly Cloudy